{"data":{"norad_id":53205,"intl_designator":"2022-084S","name":"STARLINK-4397","alt_names":[],"object_type":"PAYLOAD","status":"ACTIVE","operator":null,"country":"US","launch_date":"2022-07-22","launch_site_code":"AFWTR","launch_vehicle":null,"mission":null,"orbit_class":"UNKNOWN","rcs_meters":null,"size_class":null,"mass_kg":null,"dimensions":null,"purposes":["comms"],"wikipedia_slug":null,"has_3d_model":false,"image_url":null,"decayed_at":null,"tle_current":{"epoch":"2026-09-20T00:00:53.322624Z","epoch_age_seconds":115364,"freshness":"FRESH","line1":"1 53205U 22084S   26263.00061716  .00000421  00000+0  15374-4 0  9991","line2":"2 53205  97.2836 318.7389 0001524  96.0678 264.0738 15.33436317228670","mean_motion":15.33436317,"eccentricity":0.0001524,"inclination_deg":97.2836,"raan_deg":318.7389,"arg_perigee_deg":96.0678,"mean_anomaly_deg":264.0738,"bstar":1.5374e-5,"rev_number":22867,"period_min":93.906736395627,"perigee_km":464.52602830324,"apogee_km":466.61198989481,"semimajor_km":6843.706009099,"source":"CELESTRAK","updated_at":"2026-09-20T09:00:40.191807Z"}}}